{"data":{"norad_id":48144,"intl_designator":"2021-027BE","name":"STARLINK-2487","alt_names":[],"object_type":"PAYLOAD","status":"ACTIVE","operator":null,"country":"US","launch_date":"2021-04-07","launch_site_code":"AFETR","launch_vehicle":null,"mission":null,"orbit_class":"UNKNOWN","rcs_meters":null,"size_class":null,"mass_kg":null,"dimensions":null,"purposes":["comms"],"wikipedia_slug":null,"has_3d_model":false,"image_url":null,"decayed_at":null,"tle_current":{"epoch":"2026-09-20T05:02:01.656096Z","epoch_age_seconds":58815,"freshness":"FRESH","line1":"1 48144U 21027BE  26263.20974139  .00000289  00000+0  21085-4 0  9995","line2":"2 48144  53.1599 327.2360 0001171  98.4096 261.7038 15.31701751302489","mean_motion":15.31701751,"eccentricity":0.0001171,"inclination_deg":53.1599,"raan_deg":327.236,"arg_perigee_deg":98.4096,"mean_anomaly_deg":261.7038,"bstar":2.1085e-5,"rev_number":30248,"period_min":94.013080487756,"perigee_km":469.93277270581,"apogee_km":471.53677847566,"semimajor_km":6848.8717755907,"source":"CELESTRAK","updated_at":"2026-09-20T09:00:38.925995Z"}}}